[[{"header":{"parameterUnit":"m.s-1","parameterCategory":1,"la1":30.2991,"la2":30.254,"lo1":-89.0895,"lo2":-89.0444,"dy":0.0017,"dx":0.0017,"nx":28,"ny":28,"refTime":"2024-02-09T03:00:00:Z","depth":0,"parameterNumber":2,"parameterNumberName":"U-component_of_WINDS"},"data":[0,0,0,0,0,0,0,0,0,0,0,0,0,0,0,0,0,0,0,0,0,0,0,0,0,0,0,0,0,0,0,0,0,0,0,0,0,0,0,0,0,0,0,0,0,0,0,0,0,0,0,0,0,0,0,0,0,0,-3.143,-3.1429,0,-3.1404,-3.1404,-3.1403,-3.1326,-3.1324,-3.1323,-3.1321,-3.1297,-3.1298,-3.1299,0,0,0,0,0,0,0,0,0,0,0,0,0,-3.1415,-3.1415,-3.143,-3.1429,-3.1429,-3.1404,-3.1404,-3.1403,-3.1326,-3.1324,-3.1322,-3.132,-3.1296,-3.1298,-3.1299,0,0,0,0,0,0,0,0,0,0,0,0,0,-3.1408,-3.1415,-3.143,-3.1387,-3.1383,-3.1404,-3.1404,-3.1403,-3.1327,-3.1324,-3.1322,-3.1319,-3.1296,-3.1297,-3.1299,-3.1359,0,0,-3.1303,-3.1304,0,0,0,0,0,0,0,0,-3.1409,-3.1409,-3.1394,-3.139,-3.1386,-3.1365,-3.1389,-3.1388,-3.1327,-3.1348,-3.1321,-3.1318,-3.1322,-3.1321,-3.1322,-3.1358,-3.1357,-3.1303,-3.1304,-3.1305,-3.1305,0,0,0,0,0,0,0,-3.1409,-3.141,-3.1419,-3.1394,-3.1389,-3.1371,-3.1367,-3.1389,-3.135,-3.1346,-3.1341,-3.1339,-3.1319,-3.1321,-3.1321,-3.1356,-3.1303,-3.1305,-3.1305,-3.1306,-3.144,-3.1443,0,0,0,0,0,0,-3.1415,-3.1411,-3.142,-3.1419,-3.1391,-3.1373,-3.1369,-3.1375,-3.1349,-3.1343,-3.1341,-3.1335,-3.132,-3.1319,-3.132,-3.1387,-3.1305,-3.1306,-3.1307,-3.1437,-3.1441,-3.1444,0,0,0,0,0,0,-3.1415,-3.1417,-3.1421,-3.1413,-3.1412,-3.1376,-3.1383,-3.1375,-3.1377,-3.1345,-3.1338,-3.1349,-3.1317,-3.1318,-3.1349,-3.1385,-3.1307,-3.1308,-3.1434,-3.1438,-3.1442,-3.1524,0,0,0,0,0,0,-3.1415,-3.1417,-3.1439,-3.1414,-3.1413,-3.1451,-3.1385,-3.1377,-3.1379,-3.1371,-3.1351,-3.1345,-3.1315,-3.1348,-3.1351,-3.1386,-3.1309,-3.1431,-3.1436,-3.1441,-3.1518,-3.153,-3.1541,0,0,0,0,0,-3.1415,-3.1464,-3.1441,-3.1442,-3.1439,-3.1453,-3.1452,-3.1416,-3.1382,-3.1404,-3.1384,-3.1346,-3.1382,-3.1352,-3.1354,-3.139,-3.1428,-3.1434,-3.144,-3.1512,-3.1528,-3.154,0,0,0,0,0,0,-3.1494,-3.1459,-3.1434,-3.1475,-3.1468,-3.144,-3.1466,-3.1434,-3.1436,-3.1429,-3.1385,-3.1381,-3.1419,-3.1408,-3.1376,-3.1447,-3.1399,-3.1406,-3.1452,-3.1467,-3.1478,-3.1479,-3.131,0,0,0,0,0,-3.1517,-3.153,-3.1499,-3.1539,-3.1537,-3.1503,-3.1507,-3.148,-3.1471,-3.1467,-3.1449,-3.1443,-3.1452,-3.1459,-3.1466,-3.1517,-3.1511,-3.1543,-3.1554,-3.1564,-3.157,-3.1595,-3.1609,-3.1464,-3.1464,-3.1463,0,0,-3.1563,-3.1545,-3.1557,-3.1555,-3.1546,-3.1561,-3.15,-3.1519,-3.153,-3.1471,-3.1499,-3.1486,-3.1475,-3.1517,-3.1534,-3.1509,-3.1609,-3.1572,-3.158,-3.158,-3.1603,-3.1617,-3.1629,-3.1468,-3.1467,-3.1466,0,0,-3.1654,-3.1643,-3.1674,-3.1667,-3.1654,-3.1631,-3.1639,-3.1616,-3.1605,-3.1633,-3.1588,-3.1602,-3.1619,-3.1613,-3.1612,-3.1704,-3.1668,-3.1707,-3.1767,-3.1792,-3.1804,-3.1814,-3.1845,-3.1857,-3.1714,-3.1714,-3.1714,0,-3.1713,-3.1734,-3.1695,-3.1717,-3.1717,-3.1664,-3.1696,-3.1691,-3.1681,-3.1683,-3.1655,-3.1676,-3.1665,-3.1704,-3.1726,-3.1728,-3.1735,-3.1708,-3.1805,-3.1815,-3.1823,-3.1853,-3.1865,-3.1719,-3.1718,-3.1718,-3.1717,0,-3.1806,-3.1822,-3.1849,-3.184,-3.1844,-3.1871,-3.1837,-3.1846,-3.182,-3.18,-3.183,-3.1815,-3.1818,-3.1826,-3.1801,-3.1862,-3.1846,-3.1813,-3.1763,-3.1843,-3.1869,-3.1881,-3.1725,-3.1724,-3.1722,-3.1721,0,0,-3.1945,-3.1915,-3.1925,-3.1921,-3.1903,-3.1915,-3.194,-3.1942,-3.1951,-3.1947,-3.1966,-3.1983,-3.1952,-3.1951,-3.1925,-3.1948,-3.202,-3.1911,-3.191,-3.1931,-3.2086,-3.2109,-3.2123,-3.1998,-3.2,-3.2001,-3.2086,0,-3.203,-3.207,-3.2036,-3.2083,-3.2096,-3.2047,-3.2069,-3.2061,-3.2044,-3.2054,-3.2036,-3.2047,-3.2006,-3.2005,-3.2026,-3.2007,-3.205,-3.2001,-3.2015,-3.2016,-3.2017,-3.2137,-3.2162,-3.2243,-3.2096,-3.2098,-3.2099,0,-3.2134,-3.2134,-3.2181,-3.2161,-3.2165,-3.2186,-3.2185,-3.2195,-3.2186,-3.2172,-3.2172,-3.214,-3.2164,-3.2117,-3.215,-3.2117,-3.2121,-3.2113,-3.2116,-3.2114,-3.2061,-3.2137,-3.2268,-3.2279,-3.2116,-3.2114,-3.2113,0,-3.2228,-3.224,-3.227,-3.2268,-3.2245,-3.2261,-3.2252,-3.224,-3.2244,-3.2245,-3.2246,-3.225,-3.2252,-3.2256,-3.2226,-3.2195,-3.2263,-3.2213,-3.2251,-3.2252,-3.2266,-3.2265,-3.2397,-3.2273,-3.2273,-3.2272,-3.2272,0,-3.2326,-3.2356,-3.2312,-3.233,-3.2363,-3.2326,-3.236,-3.2347,-3.2337,-3.2352,-3.2311,-3.2326,-3.2287,-3.2298,-3.2276,-3.2305,-3.2307,-3.2297,-3.229,-3.2299,-3.23,-3.23,-3.2292,-3.2275,-3.2275,-3.2274,-3.2274,0,-3.2435,-3.2407,-3.2436,-3.2412,-3.2407,-3.2433,-3.2413,-3.2429,-3.241,-3.243,-3.2433,-3.2403,-3.2415,-3.2386,-3.2394,-3.2379,-3.2421,-3.2406,-3.2424,-3.2418,-3.2458,-3.2454,-3.2592,-3.2608,-3.2476,-3.2477,-3.2478,0,-3.2498,-3.252,-3.2499,-3.2506,-3.25,-3.2512,-3.2515,-3.248,-3.2485,-3.2477,-3.2495,-3.2503,-3.2507,-3.2528,-3.2508,-3.2513,-3.2497,-3.2546,-3.2498,-3.2506,-3.2496,-3.2494,-3.2496,-3.2555,-3.2556,-3.2558,-3.2559,0,-3.2612,-3.2597,-3.2603,-3.2605,-3.261,-3.261,-3.2607,-3.2616,-3.2578,-3.2587,-3.2598,-3.2601,-3.2609,-3.2617,-3.2619,-3.2611,-3.2579,-3.2575,-3.2583,-3.2592,-3.26,-3.2594,-3.2448,-3.2571,-3.257,-3.2569,-3.2568,-3.2568,-3.2699,-3.2716,-3.2704,-3.2712,-3.2707,-3.2705,-3.2719,-3.2702,-3.271,-3.2713,-3.2693,-3.2708,-3.2699,-3.2698,-3.2693,-3.2705,-3.2683,-3.2697,-3.2699,-3.2703,-3.2708,-3.26,-3.2706,-3.2705,-3.2705,-3.2705,-3.2704,0,-3.2809,-3.2799,-3.2808,-3.2804,-3.2812,-3.2781,-3.2777,-3.2785,-3.2798,-3.2793,-3.2798,-3.2811,-3.2819,-3.28,-3.2806,-3.2819,-3.2805,-3.2822,-3.2819,-3.2818,-3.2729,-3.2719,-3.2833,-3.2833,-3.2833,-3.2833,-3.2833,-3.2833,-3.2867,-3.2894,-3.2879,-3.2903,-3.2893,-3.2907,-3.2907,-3.2906,-3.2901,-3.2917,-3.2923,-3.2911,-3.29,-3.2905,-3.2911,-3.2906,-3.2909,-3.2931,-3.292,-3.2837,-3.2824,-3.2812,-3.2803,-3.2932,-3.2933,-3.3008,-3.3008,-3.3009]},{"header":{"parameterUnit":"m.s-1","parameterCategory":1,"la1":30.2991,"la2":30.254,"lo1":-89.0895,"lo2":-89.0444,"dy":0.0017,"dx":0.0017,"nx":28,"ny":28,"refTime":"2024-02-09T03:00:00:Z","depth":0,"parameterNumber":3,"parameterNumberName":"V-component_of_WINDS"},"data":[0,0,0,0,0,0,0,0,0,0,0,0,0,0,0,0,0,0,0,0,0,0,0,0,0,0,0,0,0,0,0,0,0,0,0,0,0,0,0,0,0,0,0,0,0,0,0,0,0,0,0,0,0,0,0,0,0,0,1.8721,1.8722,0,1.88,1.8801,1.8802,1.8841,1.8841,1.8841,1.8841,1.8922,1.8924,1.8926,0,0,0,0,0,0,0,0,0,0,0,0,0,1.8607,1.8609,1.8721,1.8722,1.8723,1.88,1.8801,1.8802,1.8841,1.8841,1.8841,1.8841,1.8921,1.8924,1.8926,0,0,0,0,0,0,0,0,0,0,0,0,0,1.8668,1.861,1.8721,1.8752,1.8755,1.88,1.8801,1.8802,1.8841,1.8841,1.8841,1.8841,1.892,1.8924,1.8927,1.8946,0,0,1.8937,1.8938,0,0,0,0,0,0,0,0,1.8665,1.8673,1.8746,1.875,1.8754,1.8811,1.879,1.885,1.8841,1.8809,1.8841,1.8841,1.8885,1.8891,1.8906,1.895,1.8953,1.8937,1.8939,1.894,1.8941,0,0,0,0,0,0,0,1.8661,1.8669,1.8752,1.8747,1.8752,1.8763,1.8771,1.8802,1.8846,1.8811,1.8814,1.8823,1.8887,1.8903,1.8908,1.8955,1.8937,1.894,1.8942,1.8943,1.9022,1.9022,0,0,0,0,0,0,1.8651,1.8666,1.875,1.8755,1.8709,1.8765,1.8774,1.8792,1.8845,1.8854,1.8823,1.8825,1.8897,1.8904,1.8911,1.8939,1.894,1.8943,1.8945,1.9022,1.9022,1.9022,0,0,0,0,0,0,1.8649,1.8658,1.8747,1.8711,1.8723,1.8767,1.8787,1.8794,1.881,1.8854,1.8862,1.8831,1.8897,1.8906,1.8938,1.8943,1.8945,1.8947,1.9021,1.9022,1.9022,1.8994,0,0,0,0,0,0,1.8645,1.8657,1.8664,1.8711,1.8725,1.8771,1.8787,1.8795,1.8815,1.8818,1.8864,1.8871,1.8898,1.8933,1.8941,1.8947,1.895,1.9021,1.9021,1.9022,1.8995,1.8994,1.8993,0,0,0,0,0,1.8641,1.8653,1.8664,1.8674,1.8735,1.8772,1.878,1.881,1.8815,1.8823,1.8853,1.887,1.894,1.8936,1.8945,1.8952,1.9021,1.9021,1.9022,1.8996,1.8994,1.8993,0,0,0,0,0,0,1.8605,1.866,1.8673,1.87,1.8731,1.8778,1.8789,1.8807,1.8837,1.8838,1.8875,1.8885,1.8914,1.8936,1.893,1.8975,1.8983,1.8985,1.896,1.8958,1.8957,1.8951,1.8953,0,0,0,0,0,1.8601,1.8626,1.8672,1.8692,1.8706,1.8745,1.8762,1.8783,1.8817,1.883,1.8861,1.8893,1.8923,1.8942,1.8971,1.8999,1.901,1.9008,1.9007,1.9006,1.9008,1.9026,1.9026,1.9023,1.9023,1.9023,0,0,1.8591,1.8624,1.8637,1.8685,1.8712,1.8738,1.8756,1.8782,1.8802,1.8834,1.8866,1.889,1.8929,1.8958,1.8973,1.8978,1.9011,1.9006,1.9005,1.9007,1.9026,1.9027,1.9027,1.9023,1.9023,1.9023,0,0,1.8588,1.8614,1.8635,1.8661,1.8701,1.8727,1.8732,1.8777,1.8795,1.8827,1.8853,1.8877,1.8927,1.8954,1.8974,1.8984,1.9002,1.8992,1.8986,1.9003,1.9003,1.9004,1.9009,1.901,1.8994,1.8994,1.8994,0,1.8571,1.8611,1.8643,1.8669,1.869,1.8721,1.8743,1.8767,1.8814,1.8828,1.8833,1.8898,1.8926,1.8964,1.8966,1.8981,1.8989,1.8987,1.9001,1.9001,1.9002,1.9008,1.9009,1.8992,1.8993,1.8993,1.8993,0,1.859,1.8617,1.8629,1.8675,1.8697,1.872,1.8757,1.8776,1.8796,1.8822,1.8856,1.8891,1.8929,1.8939,1.8958,1.8981,1.8983,1.8993,1.9002,1.9001,1.9006,1.9009,1.8991,1.8991,1.8991,1.8992,0,0,1.8565,1.863,1.8634,1.8656,1.8703,1.8725,1.8751,1.8789,1.8805,1.8838,1.8861,1.8904,1.8915,1.8938,1.896,1.8975,1.8983,1.8985,1.8986,1.8985,1.9012,1.9004,1.9006,1.8995,1.8995,1.8996,1.9009,0,1.8569,1.8616,1.8647,1.8683,1.871,1.874,1.8763,1.8795,1.882,1.8847,1.8876,1.8906,1.8917,1.8932,1.8948,1.8978,1.8989,1.8978,1.9018,1.9019,1.9009,1.9009,1.9,1.9011,1.9012,1.9012,1.9012,0,1.858,1.8612,1.865,1.8697,1.871,1.8729,1.8768,1.8793,1.8831,1.8848,1.8875,1.8898,1.8928,1.8934,1.8976,1.8968,1.8987,1.9004,1.9005,1.9011,1.9016,1.9016,1.9016,1.9018,1.9016,1.9015,1.9015,0,1.856,1.8613,1.8644,1.8661,1.8716,1.873,1.8753,1.8791,1.8812,1.8846,1.8861,1.8897,1.8918,1.8946,1.8979,1.8979,1.9019,1.9027,1.9036,1.9035,1.9043,1.9042,1.9047,1.9053,1.9053,1.9053,1.9053,0,1.8562,1.8585,1.8636,1.8654,1.8681,1.8717,1.8743,1.8769,1.8803,1.8828,1.8857,1.888,1.8922,1.8951,1.8977,1.9009,1.9018,1.9034,1.9041,1.9032,1.903,1.9045,1.9046,1.9053,1.9053,1.9053,1.9053,0,1.8545,1.8579,1.8615,1.8664,1.8677,1.8695,1.8738,1.8758,1.8785,1.8817,1.8827,1.887,1.8906,1.8942,1.8989,1.9007,1.9039,1.9048,1.9027,1.9031,1.9038,1.9038,1.9054,1.9059,1.906,1.906,1.906,0,1.8544,1.8563,1.8614,1.8633,1.8656,1.8686,1.8709,1.8746,1.8768,1.8814,1.8829,1.8867,1.8899,1.8955,1.8991,1.9028,1.9039,1.9042,1.9044,1.9036,1.9041,1.904,1.9043,1.9041,1.9041,1.904,1.904,0,1.854,1.8557,1.8588,1.8626,1.8652,1.8684,1.8716,1.8731,1.8774,1.8798,1.8835,1.886,1.891,1.8948,1.899,1.9015,1.9035,1.9039,1.9044,1.9035,1.9023,1.9031,1.9025,1.9039,1.9039,1.9039,1.9039,1.9039,1.8532,1.8551,1.8591,1.8625,1.8654,1.8684,1.8706,1.8737,1.8768,1.8812,1.8832,1.887,1.8909,1.8968,1.8993,1.9024,1.9029,1.9035,1.9036,1.9038,1.9037,1.9017,1.9031,1.9031,1.9031,1.9031,1.9032,0,1.8531,1.8559,1.859,1.8635,1.8663,1.868,1.8718,1.874,1.8773,1.8808,1.884,1.8883,1.8921,1.896,1.9001,1.9018,1.9028,1.9027,1.9027,1.9033,1.9029,1.9022,1.9018,1.9018,1.9018,1.9018,1.9018,1.9018,1.8534,1.8567,1.8589,1.8637,1.8665,1.8702,1.8722,1.8751,1.878,1.8827,1.8859,1.8885,1.8922,1.8966,1.9001,1.9012,1.9026,1.9023,1.9036,1.9032,1.9033,1.9034,1.9027,1.9025,1.9025,1.9038,1.9038,1.9038]}]]